Jonesboro, AR

1:33 PM CST on December 08, 2016 (GMT -0600)
Jonesboro Municipal

Weather History for KJBR - April, 2014

Change the Weather History Date:

Tuesday, April 8, 2014

  Actual Average Record
Temperature  
Mean Temperature 48 °F 58 °F  
Max Temperature 56 °F 68 °F 87 °F (1924)
Min Temperature 40 °F 47 °F 28 °F (2007)
Degree Days  
Heating Degree Days 17 9  
Month to date heating degree days 83 76  
Since 1 July heating degree days 3979 3496  
Cooling Degree Days 0 1  
Month to date cooling degree days 6 8  
Year to date cooling degree days 6 14  
Moisture  
Dew Point 42 °F    
Average Humidity 76    
Maximum Humidity 93    
Minimum Humidity 59    
Precipitation  
Precipitation 0.21 in 0.14 in 1.90 in (1919)
Month to date precipitation 2.04 1.17  
Year to date precipitation 11.76 12.82  
Snow  
Snow 0.00 in 0.00 in - ()
Month to date snowfall 0.0 0.0  
Since 1 July snowfall 5.2 4.8  
Snow Depth 0.00 in    
Sea Level Pressure  
Sea Level Pressure 29.88 in    
Wind  
Wind Speed 6 mph (WNW)    
Max Wind Speed 17 mph    
Max Gust Speed 25 mph    
Visibility 10 miles    
Events Rain , Thunderstorm    
T = Trace of Precipitation, MM = Missing Value Source: NWS Daily Summary

Daily Weather History Graph

Daily Weather History Graph

Search for Another Location

Airport or City:

Trip Planner

Search our weather history database for the weather conditions in past years. The results will help you decide how hot, cold, wet, or windy it might be!

Date:

Astronomy

Apr. 08, 2014 Rise Set
Actual Time 6:39 AM CDT 7:30 PM CDT
Civil Twilight 6:13 AM CDT 7:56 PM CDT
Nautical Twilight 5:42 AM CDT 8:27 PM CDT
Astronomical Twilight 5:10 AM CDT 8:58 PM CDT
Moon 1:34 PM CDT 2:40 AM CDT
Length of Visible Light 13h 43m
Length of Day
12h 51m
Waxing Gibbous, 63% of the Moon is Illuminated
Apr 8
Waxing Gibbous
Apr 15
Full
Apr 22
Last Quarter
Apr 29
New
May 6
First Quarter

Hourly Weather History & Observations

Time (CDT) Temp. Windchill Dew Point Humidity Pressure Visibility Wind Dir Wind Speed Gust Speed Precip Events Conditions
12:53 AM 41.0 °F - 39.0 °F 93% 29.86 in 10.0 mi Calm Calm - N/A   Clear
1:53 AM 43.0 °F - 39.9 °F 89% 29.84 in 10.0 mi Calm Calm - N/A   Clear
2:53 AM 39.9 °F - 37.9 °F 93% 29.82 in 10.0 mi Calm Calm - N/A   Clear
3:53 AM 44.1 °F 40.8 °F 39.0 °F 82% 29.81 in 10.0 mi SSW 5.8 mph - N/A   Clear
4:53 AM 46.9 °F - 41.0 °F 80% 29.79 in 10.0 mi WSW 6.9 mph - N/A   Clear
5:53 AM 45.0 °F 42.6 °F 39.9 °F 82% 29.80 in 10.0 mi WSW 4.6 mph - N/A   Clear
6:53 AM 46.0 °F 43.9 °F 41.0 °F 83% 29.81 in 10.0 mi West 4.6 mph - N/A   Mostly Cloudy
7:53 AM 48.0 °F - 43.0 °F 83% 29.83 in 10.0 mi West 9.2 mph - N/A   Mostly Cloudy
8:53 AM 50.0 °F - 42.1 °F 74% 29.83 in 10.0 mi North 4.6 mph - N/A   Partly Cloudy
9:53 AM 53.1 °F - 43.0 °F 69% 29.84 in 10.0 mi NW 6.9 mph - N/A   Overcast
10:53 AM 53.1 °F - 42.1 °F 66% 29.86 in 10.0 mi NW 9.2 mph - N/A   Overcast
11:53 AM 51.1 °F - 45.0 °F 80% 29.87 in 10.0 mi Variable 5.8 mph - 0.07 in Rain Light Rain
12:53 PM 54.0 °F - 46.9 °F 77% 29.86 in 10.0 mi WSW 4.6 mph - 0.00 in   Overcast
1:25 PM 55.4 °F - 44.6 °F 67% 29.85 in 10.0 mi South 4.6 mph - N/A Thunderstorm Overcast
1:40 PM 55.4 °F - 44.6 °F 67% 29.87 in 10.0 mi West 9.2 mph - N/A Thunderstorm Overcast
1:53 PM 52.0 °F - 41.0 °F 66% 29.87 in 7.0 mi WNW 9.2 mph 25.3 mph 0.02 in Rain , Thunderstorm Light Rain
2:36 PM 50.0 °F - 44.6 °F 82% 29.87 in 10.0 mi ENE 11.5 mph - 0.08 in Rain Light Rain
2:53 PM 50.0 °F - 46.9 °F 89% 29.87 in 10.0 mi ENE 9.2 mph - 0.08 in Rain Light Rain
3:53 PM 51.1 °F - 46.9 °F 86% 29.90 in 10.0 mi NW 11.5 mph - 0.00 in Rain Light Rain
4:53 PM 51.1 °F - 48.0 °F 89% 29.87 in 10.0 mi ESE 5.8 mph - 0.04 in   Overcast
5:53 PM 54.0 °F - 51.1 °F 90% 29.89 in 10.0 mi Calm Calm - N/A   Partly Cloudy
6:53 PM 53.1 °F - 44.1 °F 71% 29.92 in 10.0 mi WNW 5.8 mph - N/A   Mostly Cloudy
7:53 PM 52.0 °F - 43.0 °F 71% 29.95 in 10.0 mi WNW 8.1 mph - N/A   Scattered Clouds
8:53 PM 52.0 °F - 39.0 °F 61% 29.99 in 10.0 mi NW 6.9 mph - N/A   Clear
9:53 PM 51.1 °F - 37.9 °F 61% 30.02 in 10.0 mi NW 8.1 mph - N/A   Clear
10:53 PM 50.0 °F - 37.9 °F 63% 30.03 in 10.0 mi NW 6.9 mph - N/A   Clear
11:53 PM 48.9 °F - 37.9 °F 66% 30.06 in 10.0 mi NW 11.5 mph - N/A   Clear